56P/Slaughter-Burnham (2016)

Japanese version
Home page
Updated on January 17, 2017

---------------------------------------------------------------------

* Profile

* Pictures

* Orbital Elements

Epoch 2016 July 31.0 TT = JDT 2457600.5
T 2016 July 18.44278 TT                                 MPCW
q   2.5086413            (2000.0)            P               Q
n   0.08595724     Peri.   44.22041     +0.86251866     -0.50485994
a   5.0848842      Node   345.98543     +0.41600796     +0.74606726
e   0.5066473      Incl.    8.14784     +0.28809536     +0.43416595
P  11.47
From 609 observations 1969 Nov. 4-2016 Aug. 16, mean residual 0".7.
     Nongravitational parameters A1 = -0.03, A2 = +0.0246.

* Finding Charts

* Magnitudes Graph

        m1 = 3.2 + 5 log d + 27 log r(t - 40)

---------------------------------------------------------------------

The orbital elements are published on M.P.E.C. 2016-Q04.
The charts are made with StellaNavigator Ver.8 (AstroArts).
The magnitudes graphs are made with Comet for Windows.

---------------------------------------------------------------------

Copyright(C) Seiichi Yoshida (comet@aerith.net). All rights reserved.